BAW1HL EFHK-LGAV

Flight info

Callsign BAW1HL
Flight time N/A
Altitude 40000
Route KOIVU DCT LARTI DCT NAVOT DCT LUTAL DCT BERIL/N0488F410 DCT SUWGI/N0485F400 DCT TITUV M985 SUTIK DCT LOGDA/N0484F410 DCT KSC DCT NARKA DCT ORA DCT ADUKU DCT BAVMA DCT EVRIK DCT OLMIP DCT EKNAB DCT SODGO DCT OVDOT DCT LOMOS/N0478F400 DCT BOBVO DCT LETNI/N0480F410 DCT MAKED DCT SIGFO UM749 ROPOX
Aircraft A35K/H-SDE2E3GHIJ3J4J5LM1ORWXY/LB1D1

Departure

Time N/A
Airport Helsinki Vantaa Airport (EFHK)

Arrival

Time 2026-05-07 00:38
Airport Athens Eleftherios Venizelos International Airport (LGAV)
Time Latitude Longitude Altitude Speed Heading
2026-05-07 00:38 37.94732 23.94556 309 ft 4 kts 118°
2026-05-07 00:38 37.94713 23.94598 311 ft 1 kts 121°
2026-05-07 00:39 37.94696 23.94632 311 ft 8 kts 124°
2026-05-07 00:39 37.94649 23.94707 311 ft 14 kts 130°
2026-05-07 00:39 37.94575 23.94805 311 ft 17 kts 129°
2026-05-07 00:39 37.94505 23.94918 310 ft 17 kts 128°
2026-05-07 00:40 37.94441 23.95032 307 ft 17 kts 122°
2026-05-07 00:40 37.94365 23.95174 312 ft 22 kts 128°
2026-05-07 00:40 37.94306 23.95269 307 ft 0 kts 128°
2026-05-07 00:40 37.94296 23.95284 307 ft 5 kts 128°
2026-05-07 00:41 37.94262 23.95339 307 ft 11 kts 128°
2026-05-07 00:41 37.94205 23.95431 308 ft 16 kts 128°
2026-05-07 00:41 37.94133 23.95543 306 ft 13 kts 136°
2026-05-07 00:41 37.94094 23.95544 306 ft 6 kts 201°
2026-05-07 00:42 37.94046 23.95510 305 ft 11 kts 214°
2026-05-07 00:42 37.93969 23.95444 307 ft 16 kts 214°
2026-05-07 00:42 37.93934 23.95410 307 ft 1 kts 223°
2026-05-07 00:42 37.93922 23.95393 305 ft 5 kts 228°
2026-05-07 00:43 37.93886 23.95353 309 ft 10 kts 217°
2026-05-07 00:43 37.93807 23.95283 309 ft 16 kts 215°
2026-05-07 00:43 37.93703 23.95187 308 ft 20 kts 218°
2026-05-07 00:43 37.93582 23.95069 311 ft 24 kts 218°
2026-05-07 00:44 37.93452 23.94945 307 ft 16 kts 217°
2026-05-07 00:44 37.93350 23.94849 310 ft 20 kts 217°
2026-05-07 00:44 37.93231 23.94737 310 ft 23 kts 217°
2026-05-07 00:44 37.93148 23.94658 311 ft 12 kts 217°
2026-05-07 00:45 37.93089 23.94602 309 ft 13 kts 217°
2026-05-07 00:45 37.93009 23.94526 311 ft 15 kts 217°
2026-05-07 00:45 37.92920 23.94442 312 ft 16 kts 217°
2026-05-07 00:45 37.92868 23.94367 311 ft 2 kts 275°
2026-05-07 00:46 37.92888 23.94340 311 ft 11 kts 313°
2026-05-07 00:46 37.92959 23.94233 311 ft 16 kts 310°
2026-05-07 00:46 37.93002 23.94168 308 ft 11 kts 310°
2026-05-07 00:46 37.93017 23.94120 309 ft 2 kts 255°
2026-05-07 00:47 37.93010 23.94113 308 ft 3 kts 227°
2026-05-07 00:47 37.92985 23.94082 312 ft 7 kts 219°
2026-05-07 00:47 37.92949 23.94048 309 ft 0 kts 219°
2026-05-07 00:47 37.92948 23.94047 309 ft 0 kts 218°